EW7351 Weather Reports


time (UTC)temp
F
wind
direction
speed
knots
gust
knots
rain 1hr
in
rain 24hr
in
rain mn
in
humidity
%
barometer
mb
20260903165010 81 207 4.3 9.6 0.00 0.05 0.01 75 1013.0
20260903164441 81 231 4.3 7.8 0.00 0.05 0.01 76 1013.0
20260903163927 81 133 4.3 9.6 0.00 0.05 0.01 75 1013.0
20260903163418 81 139 4.3 8.7 0.00 0.05 0.01 75 1012.9
20260903162916 81 211 4.3 8.7 0.00 0.05 0.01 75 1012.9
20260903162355 82 129 3.5 8.7 0.00 0.05 0.01 76 1012.9
20260903161836 82 111 3.5 8.7 0.00 0.05 0.01 77 1012.8
20260903161335 82 245 3.5 8.7 0.00 0.05 0.01 76 1012.8
20260903160835 82 174 3.5 10.4 0.00 0.05 0.01 76 1012.8
20260903160314 82 121 3.5 10.4 0.00 0.05 0.01 77 1012.8
20260903155816 82 127 3.5 9.6 0.00 0.05 0.01 77 1012.8
20260903155525 81 136 4.3 9.6 0.00 0.05 0.01 77 1012.7
20260903155025 81 241 4.3 9.6 0.00 0.05 0.01 78 1012.7
20260903154303 81 184 4.3 9.6 0.00 0.05 0.01 79 1012.7
20260903153805 81 229 3.5 8.7 0.00 0.05 0.01 80 1012.7
20260903153236 80 204 2.6 7.0 0.00 0.05 0.01 81 1012.7
20260903152736 80 194 3.5 7.8 0.00 0.05 0.01 82 1012.7
20260903152500 80 137 2.6 7.8 0.00 0.05 0.01 82 1012.6
20260903152151 80 122 1.7 7.8 0.00 0.05 0.01 82 1012.7
20260903151155 80 141 3.5 7.8 0.00 0.05 0.01 83 1012.7
20260903150859 80 136 3.5 10.4 0.00 0.05 0.01 83 1012.7
20260903150132 80 139 3.5 10.4 0.00 0.05 0.01 83 1012.7
20260903145633 80 110 2.6 8.7 0.00 0.05 0.01 82 1012.7
20260903145132 80 105 2.6 8.7 0.00 0.05 0.01 82 1012.7
20260903144828 80 176 1.7 6.1 0.00 0.05 0.01 82 1012.7
20260903144044 80 190 0.9 7.8 0.00 0.05 0.01 82 1012.7
20260903143518 80 187 2.6 7.8 0.00 0.05 0.01 82 1012.7
20260903143015 80 150 2.6 9.6 0.00 0.05 0.01 82 1012.7
20260903142515 80 138 2.6 9.6 0.00 0.05 0.01 82 1012.7
20260903142008 80 136 3.5 7.8 0.00 0.05 0.01 83 1012.8
20260903141441 79 233 2.6 8.7 0.00 0.05 0.01 83 1012.7
20260903140940 79 139 2.6 7.0 0.00 0.05 0.01 83 1012.8
20260903140410 79 201 1.7 7.0 0.00 0.05 0.01 84 1012.9
20260903135904 79 161 1.7 7.0 0.00 0.05 0.01 84 1012.9
20260903135334 79 200 2.6 6.1 0.00 0.05 0.01 84 1012.8
20260903134831 79 112 2.6 6.1 0.00 0.05 0.01 85 1012.8
20260903134329 78 122 2.6 6.1 0.00 0.05 0.01 85 1012.8
20260903134249 78 144 2.6 7.8 0.00 0.05 0.01 85 1012.7
20260903133236 78 124 3.5 8.7 0.00 0.05 0.01 85 1012.7
20260903132736 78 164 3.5 8.7 0.00 0.05 0.01 85 1012.7
20260903132454 78 155 2.6 8.7 0.00 0.05 0.01 85 1012.8
20260903131930 78 124 2.6 8.7 0.00 0.05 0.01 85 1012.7
20260903131204 78 175 2.6 7.0 0.00 0.05 0.01 85 1012.6
20260903130635 78 134 1.7 6.1 0.00 0.05 0.01 85 1012.5
20260903130133 78 163 1.7 7.0 0.00 0.05 0.01 85 1012.5
20260903125605 78 86 2.6 7.0 0.00 0.05 0.01 86 1012.4
20260903125324 78 108 2.6 7.8 0.00 0.05 0.01 85 1012.4
20260903124551 77 124 2.6 7.8 0.00 0.05 0.01 85 1012.4
20260903124049 77 151 1.7 6.1 0.00 0.05 0.01 85 1012.4
20260903123527 77 146 2.6 7.8 0.00 0.05 0.01 85 1012.3
20260903123003 77 153 3.5 7.8 0.00 0.05 0.01 85 1012.2
20260903122938 77 106 3.5 7.8 0.00 0.05 0.01 85 1012.4
20260903122006 77 129 2.6 7.8 0.00 0.05 0.01 85 1012.4
20260903121503 77 134 2.6 7.0 0.00 0.05 0.01 85 1012.3
20260903121006 77 195 2.6 8.7 0.00 0.05 0.01 86 1012.2
20260903120437 77 134 1.7 8.7 0.00 0.05 0.01 86 1012.2
20260903115937 77 134 1.7 5.2 0.00 0.05 0.01 86 1012.2
20260903115408 77 110 1.7 5.2 0.00 0.05 0.01 86 1012.2
20260903114907 77 132 0.9 5.2 0.00 0.05 0.01 86 1012.1
20260903114352 77 194 0.9 5.2 0.00 0.05 0.01 86 1012.0
20260903113854 77 148 0.9 5.2 0.00 0.05 0.01 86 1011.9
20260903113325 77 170 0.9 5.2 0.00 0.05 0.01 86 1011.7
20260903113305 77 129 0.0 2.6 0.00 0.05 0.01 86 1012.0
20260903112257 77 131 0.9 2.6 0.00 0.05 0.01 86 1012.0
20260903111740 77 113 0.9 2.6 0.00 0.05 0.01 86 1012.0
20260903111235 77 221 0.9 2.6 0.00 0.05 0.01 86 1011.9
20260903110957 77 128 0.9 2.6 0.00 0.05 0.01 86 1011.9
20260903110231 76 191 0.9 2.6 0.00 0.05 0.01 86 1011.9
20260903105729 76 141 0.9 4.3 0.00 0.05 0.01 87 1012.0
20260903105444 76 143 0.9 7.0 0.00 0.05 0.01 87 1011.9
20260903104947 76 141 0.9 7.0 0.00 0.05 0.01 87 1011.7
20260903104159 76 152 1.7 7.0 0.00 0.05 0.01 87 1011.7
20260903103657 76 146 1.7 7.0 0.00 0.05 0.01 87 1011.7
20260903103129 76 220 1.7 5.2 0.00 0.05 0.01 87 1011.6
20260903102628 76 156 1.7 5.2 0.00 0.05 0.01 87 1011.6
20260903102615 76 127 1.7 4.3 0.00 0.05 0.01 87 1011.6
20260903101619 76 117 1.7 4.3 0.00 0.05 0.01 87 1011.6
20260903101341 76 128 0.9 4.3 0.00 0.05 0.01 87 1011.5
20260903100614 76 138 0.9 3.5 0.00 0.05 0.01 87 1011.5
20260903100110 76 125 0.9 3.5 0.00 0.05 0.01 87 1011.5
20260903095607 76 105 0.9 3.5 0.01 0.05 0.01 87 1011.6
20260903095056 76 141 1.7 5.2 0.01 0.05 0.01 86 1011.6
20260903094558 76 151 1.7 5.2 0.01 0.05 0.01 86 1011.7
20260903094049 76 158 0.9 5.2 0.01 0.05 0.01 86 1011.7
20260903093548 76 128 0.9 4.3 0.01 0.05 0.01 86 1011.6
20260903093020 76 115 0.9 4.3 0.01 0.05 0.01 86 1011.6
20260903092456 76 129 0.9 3.5 0.01 0.05 0.01 86 1011.6
20260903092144 76 116 0.9 3.5 0.01 0.05 0.01 86 1011.6
20260903091423 76 122 0.9 3.5 0.01 0.05 0.01 87 1011.6
20260903090925 76 117 0.0 5.2 0.01 0.05 0.01 87 1011.6
20260903090351 76 211 0.9 5.2 0.01 0.05 0.01 87 1011.3
20260903085827 76 264 1.7 7.0 0.01 0.05 0.01 87 1011.3
20260903085305 76 252 2.6 7.0 0.00 0.04 0.00 87 1011.4
20260903084733 76 227 2.6 5.2 0.00 0.04 0.00 87 1011.4
20260903084231 76 187 2.6 6.1 0.00 0.04 0.00 87 1011.4
20260903083704 76 176 2.6 6.1 0.00 0.04 0.00 87 1011.3
20260903083201 76 170 2.6 6.1 0.00 0.04 0.00 87 1011.3
20260903082700 76 217 1.7 6.1 0.00 0.04 0.00 87 1011.2
20260903082131 76 210 0.9 3.5 0.00 0.04 0.00 87 1011.3
20260903081630 76 156 0.9 2.6 0.00 0.04 0.00 87 1011.3
20260903081101 76 122 0.9 2.6 0.00 0.04 0.00 87 1011.3
20260903080558 76 138 0.0 2.6 0.00 0.04 0.00 87 1011.3
20260903080034 76 151 0.9 3.5 0.00 0.04 0.00 87 1011.3
20260903075506 76 115 0.9 4.3 0.00 0.04 0.00 87 1011.3
20260903075006 76 120 0.9 4.3 0.00 0.04 0.00 86 1011.2
20260903074503 76 114 0.0 2.6 0.00 0.04 0.00 86 1011.1
20260903074004 76 113 0.0 3.5 0.00 0.04 0.00 85 1011.1
20260903073437 77 129 0.9 3.5 0.00 0.04 0.00 85 1011.1
20260903072932 77 108 0.9 3.5 0.00 0.04 0.00 84 1011.2
20260903072432 77 122 0.0 3.5 0.00 0.04 0.00 83 1011.3
20260903071900 77 122 0.9 4.3 0.00 0.04 0.00 82 1011.3
20260903071338 78 113 0.9 5.2 0.00 0.04 0.00 81 1011.4
20260903070837 78 139 2.6 8.7 0.00 0.04 0.00 81 1011.4
20260903070337 78 124 3.5 9.6 0.00 0.04 0.00 79 1011.4
20260903065810 79 113 2.6 7.8 0.00 0.04 0.00 78 1011.4
20260903065241 79 87 1.7 7.8 0.00 0.04 0.00 76 1011.4
20260903065002 80 99 1.7 6.1 0.00 0.04 0.00 76 1011.4
20260903064458 80 115 0.9 6.1 0.00 0.04 0.00 75 1011.4
20260903063733 80 98 0.9 3.5 0.00 0.04 0.00 75 1011.4
20260903063205 80 109 0.0 3.5 0.00 0.04 0.00 75 1011.3
20260903062701 80 123 0.0 0.9 0.00 0.04 0.00 75 1011.3
20260903062138 80 123 0.0 1.7 0.00 0.04 0.00 75 1011.2
20260903061608 80 126 0.0 1.7 0.00 0.04 0.00 75 1011.3
20260903061107 80 126 0.9 5.2 0.00 0.04 0.00 75 1011.4
20260903060541 80 127 1.7 6.1 0.00 0.04 0.00 75 1011.4
20260903060037 80 124 1.7 6.1 0.00 0.04 0.00 75 1011.5
20260903055536 80 116 0.9 4.3 0.00 0.04 0.00 75 1011.6
20260903055009 80 127 0.9 3.5 0.00 0.04 0.00 75 1011.9
20260903054443 80 117 1.7 6.1 0.00 0.04 0.00 75 1012.0
20260903053921 80 117 1.7 7.0 0.00 0.04 0.00 74 1012.0
20260903053358 80 59 1.7 7.0 0.00 0.04 0.00 74 1012.0
20260903052835 80 107 1.7 8.7 0.00 0.04 0.00 73 1012.0
20260903052332 80 97 0.9 8.7 0.00 0.04 0.00 73 1012.1
20260903051833 80 105 0.0 4.3 0.00 0.04 0.00 72 1012.1
20260903051335 80 86 0.0 4.3 0.00 0.04 0.00 72 1012.0
20260903050829 80 129 0.0 6.1 0.00 0.04 0.00 72 1012.1
20260903050331 80 108 0.9 6.1 0.00 0.04 0.00 71 1012.2
20260903045807 80 120 1.7 7.8 0.00 0.04 0.04 71 1012.4
20260903045455 80 123 1.7 7.8 0.00 0.04 0.04 71 1012.3
20260903044707 80 123 1.7 10.4 0.00 0.04 0.04 70 1012.3
20260903044204 81 119 2.6 10.4 0.00 0.04 0.04 69 1012.3
20260903043921 81 115 4.3 10.4 0.00 0.04 0.04 69 1012.3
20260903043638 81 108 3.5 10.4 0.00 0.04 0.04 69 1012.2
20260903042652 81 132 3.5 9.6 0.00 0.04 0.04 69 1012.2
20260903042124 81 84 2.6 8.7 0.00 0.04 0.04 68 1012.2
20260903041622 81 28 1.7 6.1 0.00 0.04 0.04 68 1012.3
20260903041318 82 51 2.6 7.8 0.00 0.04 0.04 67 1012.3
20260903040751 82 108 2.6 7.0 0.00 0.04 0.04 66 1012.3
20260903040002 82 58 1.7 7.8 0.00 0.04 0.04 67 1012.3
20260903035458 82 116 1.7 7.8 0.00 0.04 0.04 66 1012.3
20260903034958 82 121 1.7 6.1 0.00 0.04 0.04 66 1012.3
20260903034428 82 58 1.7 7.0 0.00 0.04 0.04 66 1012.3
20260903033928 83 125 2.6 7.0 0.00 0.04 0.04 65 1012.3
20260903033617 83 128 2.6 6.1 0.00 0.04 0.04 65 1012.2
20260903032852 83 134 1.7 5.2 0.00 0.04 0.04 64 1012.1
20260903032827 83 127 0.9 5.2 0.00 0.04 0.04 64 1012.1
20260903031842 83 135 1.7 5.2 0.00 0.04 0.04 63 1012.1
20260903031338 83 115 1.7 6.1 0.00 0.04 0.04 62 1012.0
20260903030837 84 127 2.6 6.1 0.00 0.04 0.04 62 1012.1
20260903030337 84 118 2.6 7.0 0.00 0.04 0.04 62 1012.1
20260903025834 84 81 3.5 7.8 0.00 0.04 0.04 61 1012.1
20260903025805 84 129 3.5 7.8 0.00 0.04 0.04 61 1012.1
20260903024821 84 89 3.5 7.0 0.00 0.04 0.04 61 1012.1
20260903024309 85 193 3.5 12.2 0.00 0.04 0.04 60 1012.0
20260903023806 85 164 4.3 12.2 0.00 0.04 0.04 59 1012.0
20260903023309 85 115 5.2 12.2 0.00 0.04 0.04 59 1011.9
20260903023003 85 128 4.3 9.6 0.00 0.04 0.04 59 1011.7
20260903022228 85 131 4.3 9.6 0.00 0.04 0.04 58 1011.9
20260903021730 85 131 3.5 9.6 0.00 0.04 0.04 58 1011.7
20260903021202 86 85 3.5 7.8 0.00 0.04 0.04 58 1011.5
20260903020701 86 127 4.3 11.3 0.00 0.04 0.04 57 1011.5
20260903020351 86 156 5.2 12.2 0.00 0.04 0.04 57 1011.4
20260903015609 87 120 5.2 12.2 0.00 0.04 0.04 56 1011.3
20260903015040 87 122 5.2 13.0 0.00 0.04 0.04 55 1011.2
20260903014512 88 135 4.3 13.0 0.00 0.04 0.04 54 1011.1
20260903014011 88 121 4.3 7.8 0.00 0.04 0.04 54 1011.0
20260903013443 88 120 3.5 7.8 0.00 0.04 0.04 53 1010.9
20260903012942 88 139 3.5 7.8 0.00 0.04 0.04 53 1010.8
20260903012417 88 91 1.7 7.8 0.00 0.04 0.04 52 1010.7
20260903011844 88 120 0.9 7.0 0.00 0.04 0.04 51 1010.6
20260903011342 89 115 0.9 7.0 0.00 0.04 0.04 51 1010.5
20260903010841 88 115 0.9 5.2 0.00 0.04 0.04 51 1010.5
20260903010328 89 101 0.9 5.2 0.00 0.04 0.04 50 1010.5
20260903005831 89 121 1.7 5.2 0.00 0.04 0.04 50 1010.4
20260903005302 89 113 1.7 7.8 0.00 0.04 0.04 50 1010.4
20260903004735 89 120 1.7 7.8 0.00 0.04 0.04 49 1010.4
20260903004430 89 130 1.7 7.0 0.00 0.04 0.04 50 1010.4
20260903003711 89 110 0.9 5.2 0.00 0.04 0.04 51 1010.4
20260903003136 89 249 0.9 5.2 0.00 0.04 0.04 52 1010.3
20260903002635 90 115 0.9 5.2 0.00 0.04 0.04 51 1010.3
20260903002106 90 125 0.9 5.2 0.00 0.04 0.04 51 1010.3
20260903001732 90 122 0.9 3.5 0.00 0.04 0.04 53 1010.2
20260903001616 90 83 0.9 5.2 0.00 0.04 0.04 52 1010.2
20260903000753 90 123 0.9 3.5 0.00 0.04 0.04 54 1010.2
20260903000003 89 130 0.9 6.1 0.00 0.04 0.04 56 1010.2
20260902235500 89 130 0.9 6.1 0.00 0.04 0.04 57 1010.2
20260902234957 88 95 0.0 6.1 0.00 0.04 0.04 58 1010.2
20260902234647 88 129 0.0 0.9 0.00 0.04 0.04 63 1010.1
20260902233909 88 219 0.0 0.9 0.00 0.04 0.04 63 1010.1
20260902233336 88 219 0.0 0.0 0.04 0.04 0.04 65 1010.2
20260902233104 88 214 0.0 0.0 0.04 0.04 0.04 66 1010.1
20260902232326 87 214 0.0 0.0 0.04 0.04 0.04 67 1010.1
20260902231825 87 214 0.0 0.0 0.04 0.04 0.04 66 1010.2
20260902231256 87 214 0.0 0.9 0.04 0.04 0.04 67 1010.2
20260902230753 86 214 0.0 0.9 0.04 0.04 0.04 66 1010.1
20260902230510 86 214 0.0 5.2 0.04 0.04 0.04 66 1010.2
20260902225744 87 214 0.9 5.2 0.04 0.04 0.04 64 1010.2
20260902225217 86 215 1.7 7.8 0.04 0.04 0.04 65 1010.2
20260902224715 86 235 4.3 7.8 0.04 0.04 0.04 62 1010.1
20260902224209 86 214 6.1 11.3 0.04 0.04 0.04 61 1010.1
20260902223707 87 238 7.0 14.8 0.03 0.03 0.04 57 1010.2
20260902223140 93 121 5.2 13.9 0.00 0.00 0.00 51 1010.3
20260902222615 99 85 2.6 12.2 0.00 0.00 0.00 36 1010.0
20260902222049 101 140 0.9 5.2 0.00 0.00 0.00 34 1009.7
20260902221748 100 64 0.9 7.8 0.00 0.00 0.00 34 1009.7
20260902220954 101 293 0.9 7.8 0.00 0.00 0.00 34 1009.7
20260902220454 101 35 0.9 7.8 0.00 0.00 0.00 35 1009.7
20260902215926 100 352 0.9 7.8 0.00 0.00 0.00 33 1009.8
20260902215843 101 68 0.9 5.2 0.00 0.00 0.00 33 1009.8
20260902214836 102 167 0.9 5.2 0.00 0.00 0.00 32 1009.9
20260902214334 102 97 0.9 5.2 0.00 0.00 0.00 33 1010.0
20260902213809 102 121 0.9 5.2 0.00 0.00 0.00 32 1010.0
20260902213304 102 19 0.9 6.1 0.00 0.00 0.00 33 1010.1
20260902212802 102 46 1.7 7.8 0.00 0.00 0.00 32 1010.0
20260902212251 102 99 2.6 7.8 0.00 0.00 0.00 33 1010.2
20260902211754 101 119 2.6 9.6 0.00 0.00 0.00 34 1010.2
20260902211514 100 340 1.7 9.6 0.00 0.00 0.00 34 1010.2
20260902211014 100 6 0.9 7.0 0.00 0.00 0.00 35 1010.2
20260902210224 101 127 1.7 7.0 0.00 0.00 0.00 33 1010.4
20260902205659 101 68 1.7 7.8 0.00 0.00 0.00 33 1010.4
20260902205130 102 118 0.9 7.8 0.00 0.00 0.00 33 1010.4
20260902204617 101 121 0.9 5.2 0.00 0.00 0.00 34 1010.5
20260902204050 101 258 0.9 7.8 0.00 0.00 0.00 33 1010.6
20260902203549 101 328 0.9 7.8 0.00 0.00 0.00 33 1010.6
20260902203050 100 64 1.7 6.1 0.00 0.00 0.00 33 1010.8
20260902202546 100 8 1.7 6.1 0.00 0.00 0.00 34 1010.9
20260902202528 101 335 1.7 5.2 0.00 0.00 0.00 32 1010.9
20260902201519 101 153 1.7 7.0 0.00 0.00 0.00 36 1011.0
20260902201012 100 15 2.6 7.0 0.00 0.00 0.00 35 1011.0
20260902200452 99 94 1.7 7.0 0.00 0.00 0.00 35 1011.2
20260902195951 100 93 0.9 6.1 0.00 0.00 0.00 34 1011.4
20260902195451 100 63 0.9 3.5 0.00 0.00 0.00 33 1011.4
20260902195433 100 55 0.9 5.2 0.00 0.00 0.00 35 1011.6
20260902194452 100 49 0.9 5.2 0.00 0.00 0.00 35 1011.6
20260902193949 98 138 1.7 5.2 0.00 0.00 0.00 35 1011.7
20260902193444 98 358 1.7 7.0 0.00 0.00 0.00 35 1011.9
20260902192935 99 343 0.9 7.0 0.00 0.00 0.00 35 1012.0
20260902192435 100 75 0.9 6.1 0.00 0.00 0.00 34 1012.0
20260902192200 100 66 0.9 5.2 0.00 0.00 0.00 36 1012.1
20260902191433 99 129 0.9 5.2 0.00 0.00 0.00 36 1012.1
20260902190935 98 142 0.9 4.3 0.00 0.00 0.00 38 1012.3
20260902190650 99 11 0.9 5.2 0.00 0.00 0.00 36 1012.3
20260902185934 99 134 1.7 6.1 0.00 0.00 0.00 37 1012.3
20260902185419 99 105 0.9 6.1 0.00 0.00 0.00 37 1012.5
20260902184857 98 81 0.9 6.1 0.00 0.00 0.00 40 1012.5
20260902184358 98 42 0.9 4.3 0.00 0.00 0.00 38 1012.7
20260902183844 96 70 1.7 8.7 0.00 0.00 0.00 40 1012.8
20260902183606 96 354 1.7 8.7 0.00 0.00 0.00 40 1012.8
20260902182841 96 82 1.7 7.0 0.00 0.00 0.00 39 1012.9
20260902182325 96 58 1.7 8.7 0.00 0.00 0.00 40 1013.0
20260902182315 97 356 1.7 8.7 0.00 0.00 0.00 36 1013.2
20260902181259 97 354 1.7 7.0 0.00 0.00 0.00 42 1013.2
20260902180951 96 70 0.9 4.3 0.00 0.00 0.00 43 1013.4
20260902180216 96 0 0.9 5.2 0.00 0.00 0.00 44 1013.5
20260902175714 95 82 1.7 7.0 0.00 0.00 0.00 43 1013.6
20260902175152 94 13 3.5 7.0 0.00 0.00 0.00 43 1013.8
20260902174632 94 354 1.7 7.8 0.00 0.00 0.00 43 1014.0
20260902174108 95 83 1.7 7.8 0.00 0.00 0.00 42 1013.9
20260902173603 95 39 0.9 5.2 0.00 0.00 0.00 46 1014.0
20260902173102 96 43 0.9 5.2 0.00 0.00 0.00 44 1014.0
20260902172536 95 125 0.9 5.2 0.00 0.00 0.00 45 1014.2
20260902172254 95 82 0.9 5.2 0.00 0.00 0.00 44 1014.3
20260902171529 95 124 1.7 5.2 0.00 0.00 0.00 45 1014.3
20260902171029 94 167 1.7 7.0 0.00 0.00 0.00 46 1014.5
20260902170501 94 97 0.9 7.0 0.00 0.00 0.00 48 1014.6
20260902165958 93 98 0.0 3.5 0.00 0.00 0.00 49 1014.6